SCP
1 1 0 0 0 0 0 0 0 0 0 0 0 0 0 0 0 0 0 0 0 0 0 0 0 1 1 1 1 1 1 1 1 0 0 0 0 0 0 0 0 0 0 0
1 1 0 0 0 0 0 0 0 0 0 0 0 0 0 0 0 0 0 0 0 0 0 0 0 0 1 1 1 1 1 1 1 0 0 0 0 0 0 0 0 0 0 0
0 0 0 0 0 0 0 0 0 0 0 1 0 0 0 0 0 0 0 0 0 0 0 0 0 0 1 1 1 1 1 1 1 1 0 0 0 0 0 0 0 0 0 0
0 0 0 0 0 0 0 0 0 0 0 0 0 0 0 0 0 0 0 0 0 0 0 0 0 0 0 1 1 1 1 1 1 1 1 0 0 0 0 0 0 0 0 0
0 0 0 0 0 0 0 0 0 0 0 0 0 0 0 0 0 0 0 0 0 0 0 0 0 0 0 1 1 1 1 1 1 2 1 1 0 0 0 0 0 0 0 0
0 0 0 0 0 0 0 0 0 0 0 0 0 0 0 0 0 0 0 0 0 0 0 0 0 0 0 0 1 1 1 1 1 2 1 1 0 0 0 0 0 0 0 0
0 0 0 0 0 0 0 0 0 0 0 0 0 0 0 0 0 0 0 0 0 0 0 0 0 0 0 0 0 1 1 1 1 2 2 1 1 0 0 0 0 0 0 0
0 0 0 0 0 0 0 0 0 0 0 0 0 0 0 0 0 0 0 0 0 0 0 0 0 0 0 0 0 0 1 1 1 2 2 2 1 1 0 0 0 0 0 0
0 0 0 0 0 0 0 0 0 0 0 0 0 0 0 0 0 0 0 0 0 0 0 0 0 0 0 0 0 0 0 1 1 1 2 2 1 1 1 0 0 0 0 0
0 0 0 0 0 0 0 0 0 0 0 0 0 0 0 0 0 0 0 0 0 0 0 0 0 0 0 0 0 0 0 0 1 1 1 1 1 1 0 0 0 0 0 0
0 0 0 0 0 0 0 0 0 0 0 0 0 0 0 0 0 0 0 0 0 0 0 0 0 0 0 0 0 0 0 0 0 1 1 1 0 0 0 0 0 0 0 0
0 0 0 0 0 0 0 0 0 0 0 0 0 0 0 0 0 0 0 0 0 0 0 0 0 0 0 0 0 0 0 0 0 0 0 0 0 0 0 0 0 0 0 0
0 0 0 0 0 0 0 0 0 0 0 0 0 0 0 0 0 0 0 0 0 0 0 0 0 0 0 0 0 0 0 0 0 0 0 0 0 0 0 0 0 0 0 0
0 0 0 0 0 0 0 0 0 0 0 0 0 0 0 0 0 0 0 0 0 0 0 0 0 0 0 0 0 0 0 0 0 0 0 0 0 0 0 0 0 0 0 0
0 0 0 0 0 0 0 0 0 0 0 0 0 0 0 0 0 0 0 0 0 0 0 0 0 0 0 0 0 0 0 0 0 0 0 0 0 0 0 0 0 0 0 0
0 0 0 0 0 0 0 0 0 0 0 0 0 0 0 0 0 0 0 0 0 0 0 0 0 0 0 0 0 0 0 0 0 0 0 0 0 0 0 0 0 0 0 0
0 0 0 0 0 0 0 0 0 0 0 0 0 0 0 0 0 0 0 0 0 0 0 0 0 0 0 0 0 0 0 0 0 0 0 0 0 0 0 0 0 0 0 0
0 0 0 0 0 0 0 0 0 0 0 0 0 0 0 0 0 0 0 0 0 0 0 0 0 0 0 0 0 0 0 0 0 0 0 0 0 0 0 0 0 0 0 0
0 0 0 0 0 0 0 0 0 0 0 0 0 0 0 0 0 0 0 0 0 0 0 0 0 0 0 0 0 0 0 0 0 0 0 0 0 0 0 0 0 0 0 0
0 0 0 0 0 0 0 0 0 0 0 0 0 0 0 0 0 0 0 0 0 0 0 0 0 0 0 0 0 0 0 0 0 0 0 0 0 0 0 0 0 0 0 0
0 0 0 0 0 0 0 0 0 0 0 0 0 0 0 0 0 0 0 0 0 0 0 0 0 0 0 0 0 0 0 0 0 0 0 0 0 0 0 0 0 0 0 0
0 0 0 0 0 0 0 0 0 0 0 0 0 0 0 0 0 0 0 0 0 0 0 0 0 0 0 0 0 0 0 0 0 0 0 0 0 0 0 0 0 0 0 0
0 0 0 0 0 0 0 0 0 0 0 0 0 0 0 0 0 0 0 0 0 0 0 0 0 0 0 0 0 0 0 0 0 0 0 0 0 0 0 0 0 0 0 0
0 0 0 0 0 0 0 0 0 0 0 0 0 0 0 0 0 0 0 0 0 0 0 0 0 0 0 0 0 0 0 0 0 0 0 0 0 0 0 0 0 0 0 0
0 0 0 0 0 0 0 0 0 0 0 0 0 0 0 0 0 0 0 0 0 0 0 0 0 0 0 0 0 0 0 0 0 0 0 0 0 0 0 0 0 0 0 0
0 0 0 0 0 0 0 0 0 0 0 0 0 0 0 0 0 0 0 0 0 0 0 0 0 0 0 0 0 0 0 0 0 0 0 0 0 0 0 0 0 0 0 0
Wind_Speed
10 10 15 18 19 14 9 11 12 9 7 9 13 14 12 10 10 10 9 9 8 9 7 7 7 7 7 7 7 7 8 8 7 6 7 6 7 6 5 5 6 8 7 8
9 18 18 13 14 15 15 14 13 7 4 5 8 12 11 12 12 11 11 10 9 8 7 7 7 7 8 8 7 7 7 8 8 7 7 5 5 4 5 5 6 7 7 7
19 10 13 15 15 16 17 16 13 8 2 5 6 11 13 14 14 13 12 10 9 9 8 7 7 7 7 7 7 7 7 7 7 7 5 4 4 3 4 6 6 7 8 7
17 15 12 14 16 17 17 13 11 9 5 5 6 8 9 11 14 16 14 12 10 9 8 7 6 6 6 6 6 6 6 6 6 6 6 8 7 8 7 6 5 5 7 8
11 12 15 17 16 15 10 6 8 8 8 8 7 8 8 9 14 15 14 13 12 10 9 7 6 5 5 5 5 4 4 4 5 6 7 8 7 7 5 4 5 6 6 7
13 9 10 13 12 11 6 4 5 6 6 13 14 12 10 10 13 10 11 11 11 9 8 6 4 4 4 4 4 4 4 4 4 5 6 7 8 7 6 6 5 5 4 4
12 14 11 7 10 10 9 8 6 8 10 12 11 13 11 7 8 8 8 8 8 8 7 6 5 4 4 4 3 3 4 4 4 4 5 6 7 7 7 6 5 4 3 3
10 11 15 11 13 11 15 14 10 8 8 6 9 13 9 6 6 5 4 4 5 5 6 5 5 4 4 4 3 3 3 3 3 3 3 4 5 4 4 5 4 4 3 3
8 8 8 12 10 12 13 15 11 6 4 4 7 8 8 5 5 6 5 5 5 5 5 5 4 3 3 3 3 3 3 2 2 2 2 2 2 2 2 2 2 2 2 2
4 5 7 8 7 11 11 8 6 10 8 10 8 11 8 8 10 9 8 7 6 5 5 4 4 3 3 2 1 1 2 2 2 2 2 1 1 1 1 2 2 1 1 1
6 5 4 7 13 14 12 13 10 7 7 7 7 6 6 9 9 10 9 7 7 6 5 4 3 3 3 2 1 1 2 2 2 2 2 2 1 1 2 2 2 1 2 2
6 3 5 8 8 8 11 13 13 10 8 7 7 7 2 2 2 4 5 6 6 5 5 4 4 3 2 2 2 2 2 2 1 2 2 2 2 2 2 2 2 2 2 2
5 4 3 3 5 7 10 12 13 10 6 6 7 7 2 1 2 2 4 5 5 5 5 4 3 3 2 2 2 2 2 2 1 2 3 3 2 3 3 3 3 3 3 3
5 5 6 8 4 4 8 10 12 12 10 10 12 10 7 5 3 1 2 3 3 4 4 4 3 3 2 2 2 2 2 2 2 2 3 3 2 3 3 3 3 3 3 3
4 5 6 8 8 6 8 10 11 14 13 11 11 14 12 8 6 5 3 3 3 4 4 4 4 3 3 3 2 2 2 2 3 3 3 3 3 3 3 3 3 3 3 4
4 4 4 7 8 9 9 11 13 14 14 14 13 16 11 7 5 5 4 4 5 5 5 4 4 4 4 3 3 3 3 2 3 3 3 3 3 3 3 3 3 4 3 3
4 4 4 6 6 6 11 13 14 13 13 13 17 17 10 9 8 7 6 6 6 6 5 5 4 3 3 3 3 3 3 3 3 3 3 3 3 3 3 3 4 4 3 4
6 5 4 3 3 11 10 9 12 14 15 14 13 12 12 11 8 5 5 6 6 5 5 4 3 3 3 3 3 3 3 4 4 4 3 3 3 3 3 3 3 3 3 3
10 8 5 4 6 8 8 7 9 11 13 10 11 11 10 7 5 5 4 5 5 4 4 4 4 4 4 3 3 4 4 4 3 3 2 2 2 3 3 3 3 3 3 4
10 9 7 6 6 9 8 6 6 6 11 9 9 10 8 4 6 6 1 2 3 4 4 4 4 5 4 3 4 4 4 3 3 2 2 2 2 3 3 2 3 3 3 4
7 8 11 10 9 8 8 5 3 7 9 4 5 6 5 6 6 2 2 3 4 4 5 5 5 4 4 4 4 4 3 3 2 2 3 3 3 3 3 3 3 3 4 4
8 7 8 8 9 10 5 4 6 6 3 2 3 3 3 3 1 1 2 4 5 5 5 5 5 4 3 4 5 4 3 2 3 3 3 3 3 3 3 3 3 3 4 4
8 8 5 8 8 5 3 5 3 2 3 3 3 2 1 2 2 1 1 3 4 5 4 4 5 4 3 3 4 4 2 3 3 3 3 3 3 3 3 3 4 3 3 3
5 4 5 7 8 6 5 4 3 3 3 3 2 2 2 3 2 2 3 4 4 4 4 4 4 4 3 3 4 3 3 3 3 3 3 3 3 3 3 2 2 2 2 2
5 3 5 9 8 5 5 4 4 3 2 2 2 2 2 3 3 3 3 4 4 4 3 3 3 3 3 3 4 3 3 3 3 3 3 3 3 3 2 2 2 2 1 2
6 7 8 10 7 6 6 3 3 3 3 2 2 2 1 3 3 3 3 3 4 4 4 4 4 4 3 3 3 3 2 2 3 3 3 2 2 2 2 2 3 5 4 5
Wind_Direction
194 203 209 207 212 231 246 234 231 230 209 212 228 239 239 235 237 236 231 228 229 228 215 198 190 185 180 182 187 191 193 194 189 189 193 200 208 208 209 210 208 208 205 200
204 221 220 216 216 227 242 250 250 248 209 221 242 248 246 242 239 235 233 229 227 230 220 204 193 186 184 186 189 192 196 196 195 196 194 195 194 203 210 209 213 213 209 206
218 221 213 220 221 221 229 235 240 245 248 244 258 259 240 241 240 240 236 232 230 225 220 212 201 190 183 188 190 193 196 198 198 192 181 180 188 201 210 213 215 214 213 213
229 234 222 218 221 217 229 227 240 249 247 247 218 261 239 231 230 229 229 228 228 229 225 217 206 195 187 189 183 185 191 198 199 191 188 189 196 207 212 208 207 200 206 212
222 214 220 223 222 218 230 218 229 238 245 255 235 253 253 224 230 225 220 218 218 218 217 213 205 192 178 172 170 175 184 198 202 198 196 198 206 212 206 197 197 200 202 206
242 234 222 228 226 221 215 212 232 242 237 241 225 232 255 219 225 220 216 212 208 204 203 201 194 173 170 159 159 169 183 200 206 203 198 199 205 207 201 201 200 199 193 197
229 235 232 225 215 211 201 187 199 206 218 234 202 221 244 220 219 212 212 204 193 187 186 190 190 180 164 158 162 169 179 197 204 203 202 204 209 207 205 204 203 193 187 193
208 220 211 212 212 202 203 202 203 204 212 228 195 223 241 212 206 205 207 190 178 177 174 173 168 161 159 160 164 171 179 188 194 202 206 206 207 207 210 208 199 192 190 193
212 226 194 204 210 207 204 216 227 251 264 254 229 233 237 195 195 196 196 189 186 180 165 155 151 145 149 154 164 170 169 173 177 188 196 196 198 199 198 189 181 177 177 171
248 244 213 198 206 226 220 202 203 216 218 234 235 229 228 206 208 204 198 194 187 172 162 150 140 127 118 119 120 123 153 162 160 157 167 150 166 161 147 127 133 141 128 116
237 243 224 198 203 207 207 213 213 212 216 217 234 236 225 212 202 202 198 186 176 168 154 139 123 119 119 114 116 115 102 113 122 121 117 113 104 95 101 105 99 99 92 99
215 223 234 229 225 219 220 218 214 217 222 220 240 250 311 41 121 154 164 157 149 144 139 135 134 135 139 143 137 116 96 85 85 101 103 101 98 100 101 98 92 93 97 92
190 204 215 227 229 217 224 222 223 233 241 231 232 247 258 12 59 84 128 141 142 142 139 139 146 160 166 157 141 122 107 98 81 91 98 93 91 93 95 90 82 83 90 87
204 218 221 224 227 206 227 232 227 226 233 239 238 250 262 270 275 271 173 155 150 156 158 166 173 173 162 149 140 130 119 115 108 100 96 93 85 85 85 82 81 80 85 88
195 224 244 263 272 253 241 238 235 234 231 237 247 252 254 249 244 243 229 200 187 191 191 189 186 183 170 157 146 135 129 123 117 110 102 94 84 82 82 82 82 82 82 84
208 228 240 258 256 255 253 243 239 239 236 240 251 258 258 263 255 248 229 212 214 215 210 201 189 182 178 172 163 150 143 128 116 115 110 99 93 91 87 86 88 88 85 85
213 203 219 247 251 256 244 228 230 234 231 231 241 250 259 261 254 240 226 219 219 218 209 196 192 185 172 162 149 145 132 112 110 110 103 98 99 96 90 91 91 93 92 88
216 215 223 240 226 233 239 222 224 236 243 239 241 249 249 249 250 247 230 218 218 206 192 183 171 151 130 115 112 114 109 108 109 110 107 104 106 106 99 97 95 91 89 91
214 209 214 216 232 254 258 229 215 224 244 240 246 254 258 256 259 260 241 215 200 181 163 152 139 133 124 120 122 115 105 102 103 105 105 101 112 113 109 107 103 98 97 90
213 210 213 220 229 233 238 226 215 217 250 243 243 254 260 252 247 251 230 136 119 115 118 121 117 111 114 115 114 116 116 110 110 108 100 91 102 113 114 113 108 98 101 99
197 207 217 226 236 249 252 239 162 201 241 241 236 255 253 239 243 230 135 116 109 110 119 121 119 118 118 114 115 121 118 122 106 91 91 91 93 100 106 103 96 97 98 98
196 202 208 211 229 242 236 190 197 227 257 271 267 266 266 266 266 109 115 117 109 106 108 112 115 112 104 108 120 122 119 99 88 90 93 90 88 94 102 106 97 98 108 108
212 208 206 208 222 237 212 214 236 263 261 271 270 273 227 237 233 216 141 121 113 110 106 100 109 104 86 91 114 126 104 91 96 96 98 97 92 94 101 113 115 113 112 116
238 227 233 249 252 252 260 264 272 275 266 280 289 284 244 221 208 190 153 131 118 109 106 101 108 111 94 75 79 96 96 96 108 112 109 106 107 100 95 105 116 127 133 131
236 226 236 250 258 278 269 251 252 269 278 300 310 293 233 179 185 180 154 135 125 116 108 109 120 120 106 81 76 75 82 97 110 114 110 110 111 114 105 94 96 108 101 126
220 223 232 246 243 237 253 231 225 237 248 247 251 267 216 174 177 156 144 132 129 128 120 118 115 117 107 94 85 70 68 88 112 117 115 117 116 110 104 101 84 76 87 92